Wetterdaten: Sonntag, 09.06.2013
Datum Zeit Temperatur Luftfeuchte Luftdruck Regen Wind Richtung Richtung Taupunkt Windchill Windben
09.06.2013 00:00 12,6 C 81 % 1014,8 hPa 0,0 l/m 0,0 km/h (0 Bft) NO 45 9,4 C 12,5 C 0,0 km/h (0 Bft)
09.06.2013 00:05 12,6 C 82 % 1014,8 hPa 0,0 l/m 0,0 km/h (0 Bft) S 180 9,6 C 12,6 C 0,0 km/h (0 Bft)
09.06.2013 00:10 12,7 C 82 % 1014,8 hPa 0,0 l/m 0,8 km/h (0 Bft) S-SO 157 9,7 C 12,7 C 3,9 km/h (1 Bft)
09.06.2013 00:15 13,3 C 83 % 1014,8 hPa 0,0 l/m 2,1 km/h (1 Bft) O-NO 67 10,5 C 13,0 C 4,3 km/h (1 Bft)
09.06.2013 00:20 13,7 C 83 % 1014,8 hPa 0,0 l/m 2,6 km/h (1 Bft) NO 45 10,9 C 13,2 C 6,4 km/h (2 Bft)
09.06.2013 00:25 14,1 C 80 % 1014,8 hPa 0,0 l/m 2,3 km/h (1 Bft) S 180 10,7 C 13,7 C 2,7 km/h (1 Bft)
09.06.2013 00:30 14,2 C 80 % 1014,8 hPa 0,0 l/m 1,3 km/h (1 Bft) SO 135 10,8 C 14,2 C 6,4 km/h (2 Bft)
09.06.2013 00:35 14,4 C 79 % 1014,8 hPa 0,0 l/m 1,0 km/h (0 Bft) O-SO 112 10,8 C 14,5 C 0,0 km/h (0 Bft)
09.06.2013 00:40 14,5 C 78 % 1014,6 hPa 0,0 l/m 1,3 km/h (1 Bft) O-NO 67 10,7 C 14,9 C 0,0 km/h (0 Bft)
09.06.2013 00:45 14,7 C 77 % 1014,6 hPa 0,0 l/m 1,1 km/h (1 Bft) S 180 10,7 C 15,0 C 5,6 km/h (1 Bft)
09.06.2013 00:50 14,6 C 77 % 1014,6 hPa 0,0 l/m 1,1 km/h (1 Bft) S 180 10,6 C 15,0 C 1,9 km/h (1 Bft)
09.06.2013 00:55 14,3 C 77 % 1014,6 hPa 0,0 l/m 1,3 km/h (1 Bft) S-SO 157 10,3 C 15,0 C 2,1 km/h (1 Bft)
09.06.2013 01:00 14,3 C 77 % 1014,6 hPa 0,0 l/m 1,1 km/h (1 Bft) S-SW 202 10,3 C 15,0 C 2,3 km/h (1 Bft)
09.06.2013 01:05 14,1 C 77 % 1014,6 hPa 0,0 l/m 0,8 km/h (0 Bft) SO 135 10,1 C 14,9 C 0,0 km/h (0 Bft)
09.06.2013 01:10 14,0 C 77 % 1014,6 hPa 0,0 l/m 0,8 km/h (0 Bft) S-SO 157 10,0 C 14,7 C 2,1 km/h (1 Bft)
09.06.2013 01:15 13,9 C 78 % 1014,6 hPa 0,0 l/m 1,8 km/h (1 Bft) S 180 10,1 C 14,6 C 1,8 km/h (1 Bft)
09.06.2013 01:20 13,8 C 78 % 1014,2 hPa 0,0 l/m 1,8 km/h (1 Bft) O-NO 67 10,0 C 14,5 C 0,0 km/h (0 Bft)
09.06.2013 01:25 13,6 C 79 % 1014,2 hPa 0,0 l/m 0,6 km/h (0 Bft) W-SW 247 10,0 C 14,2 C 0,0 km/h (0 Bft)
09.06.2013 01:30 13,5 C 79 % 1014,2 hPa 0,0 l/m 0,5 km/h (0 Bft) SO 135 9,9 C 14,1 C 0,0 km/h (0 Bft)
09.06.2013 01:35 13,6 C 80 % 1014,2 hPa 0,0 l/m 0,2 km/h (0 Bft) W-NW 292 10,2 C 13,9 C 0,0 km/h (0 Bft)
09.06.2013 01:40 13,6 C 80 % 1014,0 hPa 0,0 l/m 0,2 km/h (0 Bft) O 90 10,2 C 13,9 C 1,8 km/h (1 Bft)
09.06.2013 01:45 13,6 C 79 % 1014,0 hPa 0,0 l/m 0,2 km/h (0 Bft) O-NO 67 10,0 C 13,9 C 1,9 km/h (1 Bft)
09.06.2013 01:50 13,5 C 79 % 1014,0 hPa 0,0 l/m 0,5 km/h (0 Bft) W 270 9,9 C 13,9 C 0,0 km/h (0 Bft)
09.06.2013 01:55 13,6 C 79 % 1014,0 hPa 0,0 l/m 0,5 km/h (0 Bft) W-SW 247 10,0 C 14,0 C 0,0 km/h (0 Bft)
09.06.2013 02:00 13,8 C 80 % 1013,6 hPa 0,0 l/m 0,6 km/h (0 Bft) W 270 10,4 C 14,1 C 0,0 km/h (0 Bft)
09.06.2013 02:05 13,6 C 79 % 1013,6 hPa 0,0 l/m 0,8 km/h (0 Bft) N-NO 22 10,0 C 14,1 C 0,0 km/h (0 Bft)
09.06.2013 02:10 13,7 C 79 % 1013,6 hPa 0,0 l/m 0,2 km/h (0 Bft) O-NO 67 10,1 C 14,1 C 0,0 km/h (0 Bft)
09.06.2013 02:15 13,7 C 79 % 1013,6 hPa 0,0 l/m 0,0 km/h (0 Bft) S-SW 202 10,1 C 14,0 C 0,0 km/h (0 Bft)
09.06.2013 02:20 13,8 C 79 % 1013,6 hPa 0,0 l/m 0,2 km/h (0 Bft) O 90 10,2 C 13,9 C 1,9 km/h (1 Bft)
09.06.2013 02:25 13,8 C 79 % 1013,6 hPa 0,0 l/m 0,2 km/h (0 Bft) O 90 10,2 C 13,9 C 1,8 km/h (1 Bft)
09.06.2013 02:30 13,7 C 80 % 1013,6 hPa 0,0 l/m 0,2 km/h (0 Bft) NO 45 10,3 C 13,9 C 0,0 km/h (0 Bft)
09.06.2013 02:35 13,6 C 79 % 1013,6 hPa 0,0 l/m 0,3 km/h (0 Bft) O 90 10,0 C 13,7 C 0,0 km/h (0 Bft)
09.06.2013 02:40 13,5 C 79 % 1013,2 hPa 0,0 l/m 0,2 km/h (0 Bft) O-NO 67 9,9 C 13,7 C 0,0 km/h (0 Bft)
09.06.2013 02:45 13,3 C 80 % 1013,2 hPa 0,0 l/m 0,0 km/h (0 Bft) O-NO 67 9,9 C 13,5 C 1,6 km/h (1 Bft)
09.06.2013 02:50 13,2 C 81 % 1013,2 hPa 0,0 l/m 0,0 km/h (0 Bft) N-NO 22 10,0 C 13,4 C 0,0 km/h (0 Bft)
09.06.2013 02:55 13,0 C 80 % 1013,2 hPa 0,0 l/m 0,2 km/h (0 Bft) O-NO 67 9,6 C 13,1 C 0,0 km/h (0 Bft)
09.06.2013 03:00 13,0 C 80 % 1013,1 hPa 0,0 l/m 0,0 km/h (0 Bft) NO 45 9,6 C 13,1 C 0,0 km/h (0 Bft)
09.06.2013 03:05 13,2 C 80 % 1013,1 hPa 0,0 l/m 0,3 km/h (0 Bft) NO 45 9,8 C 13,0 C 2,9 km/h (1 Bft)
09.06.2013 03:10 13,0 C 79 % 1013,1 hPa 0,0 l/m 0,3 km/h (0 Bft) O-NO 67 9,4 C 13,1 C 0,0 km/h (0 Bft)
09.06.2013 03:15 13,0 C 79 % 1013,1 hPa 0,0 l/m 0,3 km/h (0 Bft) O 90 9,4 C 13,1 C 0,0 km/h (0 Bft)
09.06.2013 03:20 13,1 C 78 % 1013,0 hPa 0,0 l/m 0,2 km/h (0 Bft) NO 45 9,4 C 13,1 C 0,0 km/h (0 Bft)
09.06.2013 03:25 13,3 C 77 % 1013,0 hPa 0,0 l/m 0,3 km/h (0 Bft) NO 45 9,4 C 13,2 C 0,0 km/h (0 Bft)
09.06.2013 03:30 13,3 C 77 % 1013,0 hPa 0,0 l/m 0,5 km/h (0 Bft) O 90 9,4 C 13,4 C 0,0 km/h (0 Bft)
09.06.2013 03:35 13,0 C 77 % 1013,0 hPa 0,0 l/m 1,4 km/h (1 Bft) O-SO 112 9,1 C 13,3 C 3,2 km/h (1 Bft)
09.06.2013 03:40 13,0 C 77 % 1013,0 hPa 0,0 l/m 1,4 km/h (1 Bft) SO 135 9,1 C 13,2 C 0,0 km/h (0 Bft)
09.06.2013 03:45 13,1 C 77 % 1013,0 hPa 0,0 l/m 1,0 km/h (0 Bft) O-SO 112 9,2 C 13,1 C 0,0 km/h (0 Bft)
09.06.2013 03:50 12,9 C 78 % 1013,0 hPa 0,0 l/m 0,6 km/h (0 Bft) NO 45 9,2 C 13,0 C 0,0 km/h (0 Bft)
09.06.2013 03:55 12,7 C 78 % 1013,0 hPa 0,0 l/m 0,6 km/h (0 Bft) S 180 9,0 C 13,0 C 0,0 km/h (0 Bft)
09.06.2013 04:00 12,7 C 78 % 1012,8 hPa 0,0 l/m 0,6 km/h (0 Bft) O 90 9,0 C 12,9 C 0,0 km/h (0 Bft)
09.06.2013 04:05 12,9 C 78 % 1012,8 hPa 0,0 l/m 0,8 km/h (0 Bft) NO 45 9,2 C 12,7 C 2,6 km/h (1 Bft)
09.06.2013 04:10 12,8 C 78 % 1012,8 hPa 0,0 l/m 0,8 km/h (0 Bft) S-SW 202 9,1 C 12,9 C 3,1 km/h (1 Bft)
09.06.2013 04:15 12,6 C 79 % 1012,8 hPa 0,0 l/m 1,3 km/h (1 Bft) O 90 9,1 C 12,7 C 2,7 km/h (1 Bft)
09.06.2013 04:20 12,8 C 79 % 1012,8 hPa 0,0 l/m 1,9 km/h (1 Bft) O-NO 67 9,2 C 12,7 C 2,4 km/h (1 Bft)
09.06.2013 04:25 12,7 C 79 % 1012,8 hPa 0,0 l/m 1,6 km/h (1 Bft) O 90 9,2 C 12,7 C 1,8 km/h (1 Bft)
09.06.2013 04:30 12,5 C 79 % 1012,8 hPa 0,0 l/m 1,1 km/h (1 Bft) O 90 9,0 C 12,6 C 1,8 km/h (1 Bft)
09.06.2013 04:35 12,7 C 81 % 1012,8 hPa 0,0 l/m 1,4 km/h (1 Bft) O-NO 67 9,5 C 12,4 C 3,4 km/h (1 Bft)
09.06.2013 04:40 13,3 C 79 % 1012,8 hPa 0,0 l/m 2,3 km/h (1 Bft) O 90 9,7 C 12,6 C 3,7 km/h (1 Bft)
09.06.2013 04:45 12,7 C 79 % 1012,8 hPa 0,0 l/m 1,8 km/h (1 Bft) NO 45 9,2 C 12,7 C 0,0 km/h (0 Bft)
09.06.2013 04:50 12,2 C 79 % 1012,8 hPa 0,0 l/m 0,8 km/h (0 Bft) O 90 8,7 C 12,4 C 0,0 km/h (0 Bft)
09.06.2013 04:55 12,1 C 79 % 1012,8 hPa 0,0 l/m 0,5 km/h (0 Bft) O 90 8,6 C 12,1 C 2,7 km/h (1 Bft)
09.06.2013 05:00 12,5 C 81 % 1012,8 hPa 0,0 l/m 1,1 km/h (1 Bft) O-SO 112 9,3 C 12,1 C 0,0 km/h (0 Bft)
09.06.2013 05:05 12,0 C 81 % 1012,8 hPa 0,0 l/m 1,3 km/h (1 Bft) S-SW 202 8,8 C 11,9 C 0,0 km/h (0 Bft)
09.06.2013 05:10 11,6 C 83 % 1012,8 hPa 0,0 l/m 0,6 km/h (0 Bft) O-NO 67 8,8 C 11,6 C 0,0 km/h (0 Bft)
09.06.2013 05:15 11,5 C 83 % 1012,8 hPa 0,0 l/m 1,0 km/h (0 Bft) N-NO 22 8,7 C 11,3 C 0,0 km/h (0 Bft)
09.06.2013 05:20 11,4 C 83 % 1012,8 hPa 0,0 l/m 1,1 km/h (1 Bft) O-SO 112 8,6 C 11,2 C 3,4 km/h (1 Bft)
09.06.2013 05:25 11,9 C 83 % 1012,8 hPa 0,0 l/m 1,3 km/h (1 Bft) O-SO 112 9,1 C 11,3 C 0,0 km/h (0 Bft)
09.06.2013 05:30 11,3 C 83 % 1012,8 hPa 0,0 l/m 1,3 km/h (1 Bft) O-SO 112 8,5 C 11,2 C 0,0 km/h (0 Bft)
09.06.2013 05:35 11,4 C 84 % 1012,8 hPa 0,0 l/m 1,0 km/h (0 Bft) O-SO 112 8,8 C 11,0 C 4,2 km/h (1 Bft)
09.06.2013 05:40 11,6 C 84 % 1012,9 hPa 0,0 l/m 2,3 km/h (1 Bft) O-NO 67 9,0 C 11,1 C 4,5 km/h (1 Bft)
09.06.2013 05:45 11,4 C 84 % 1012,9 hPa 0,0 l/m 2,3 km/h (1 Bft) S 180 8,8 C 11,2 C 0,0 km/h (0 Bft)
09.06.2013 05:50 11,6 C 84 % 1012,9 hPa 0,0 l/m 1,9 km/h (1 Bft) O 90 9,0 C 11,1 C 4,8 km/h (1 Bft)
09.06.2013 05:55 11,9 C 83 % 1012,9 hPa 0,0 l/m 2,9 km/h (1 Bft) O 90 9,1 C 11,6 C 3,2 km/h (1 Bft)
09.06.2013 06:00 12,5 C 82 % 1013,4 hPa 0,0 l/m 2,4 km/h (1 Bft) O-SO 112 9,5 C 12,2 C 0,0 km/h (0 Bft)
09.06.2013 06:05 13,5 C 80 % 1013,4 hPa 0,0 l/m 0,6 km/h (0 Bft) O 90 10,1 C 13,2 C 1,8 km/h (1 Bft)
09.06.2013 06:10 14,0 C 78 % 1013,4 hPa 0,0 l/m 0,6 km/h (0 Bft) O-SO 112 10,2 C 13,9 C 0,0 km/h (0 Bft)
09.06.2013 06:15 14,4 C 77 % 1013,4 hPa 0,0 l/m 0,6 km/h (0 Bft) O-SO 112 10,4 C 14,8 C 0,0 km/h (0 Bft)
09.06.2013 06:20 15,1 C 76 % 1013,6 hPa 0,0 l/m 0,0 km/h (0 Bft) SO 135 10,9 C 15,4 C 0,0 km/h (0 Bft)
09.06.2013 06:25 14,6 C 75 % 1013,6 hPa 0,0 l/m 1,1 km/h (1 Bft) O 90 10,2 C 15,5 C 3,4 km/h (1 Bft)
09.06.2013 06:30 14,5 C 75 % 1013,6 hPa 0,0 l/m 1,1 km/h (1 Bft) SO 135 10,1 C 15,0 C 0,0 km/h (0 Bft)
09.06.2013 06:35 13,8 C 75 % 1013,6 hPa 0,0 l/m 0,2 km/h (0 Bft) NO 45 9,4 C 14,8 C 0,0 km/h (0 Bft)
09.06.2013 06:40 15,4 C 74 % 1013,8 hPa 0,0 l/m 0,0 km/h (0 Bft) NO 45 10,8 C 15,2 C 0,0 km/h (0 Bft)
09.06.2013 06:45 17,3 C 72 % 1013,8 hPa 0,0 l/m 0,6 km/h (0 Bft) O-SO 112 12,2 C 16,2 C 0,0 km/h (0 Bft)
09.06.2013 06:50 18,1 C 68 % 1013,8 hPa 0,0 l/m 1,0 km/h (0 Bft) S 180 12,1 C 17,2 C 2,4 km/h (1 Bft)
09.06.2013 06:55 17,4 C 65 % 1013,8 hPa 0,0 l/m 1,9 km/h (1 Bft) W-SW 247 10,8 C 17,7 C 2,6 km/h (1 Bft)
09.06.2013 07:00 17,1 C 65 % 1013,5 hPa 0,0 l/m 1,8 km/h (1 Bft) S-SW 202 10,5 C 18,0 C 0,0 km/h (0 Bft)
09.06.2013 07:05 18,0 C 67 % 1013,5 hPa 0,0 l/m 1,1 km/h (1 Bft) S 180 11,8 C 17,8 C 0,0 km/h (0 Bft)
09.06.2013 07:10 19,6 C 65 % 1013,5 hPa 0,0 l/m 1,1 km/h (1 Bft) S 180 12,8 C 18,2 C 0,0 km/h (0 Bft)
09.06.2013 07:15 20,8 C 60 % 1013,5 hPa 0,0 l/m 1,9 km/h (1 Bft) S 180 12,7 C 19,1 C 2,6 km/h (1 Bft)
09.06.2013 07:20 19,7 C 59 % 1013,9 hPa 0,0 l/m 2,9 km/h (1 Bft) SO 135 11,5 C 19,3 C 5,5 km/h (1 Bft)
09.06.2013 07:25 19,8 C 56 % 1013,9 hPa 0,0 l/m 4,7 km/h (1 Bft) S-SW 202 10,8 C 19,4 C 7,1 km/h (2 Bft)
09.06.2013 07:30 17,6 C 60 % 1013,9 hPa 0,0 l/m 5,1 km/h (1 Bft) S 180 9,7 C 18,8 C 13,8 km/h (3 Bft)
09.06.2013 07:35 17,0 C 63 % 1013,9 hPa 0,0 l/m 6,0 km/h (2 Bft) S-SW 202 9,9 C 17,4 C 8,7 km/h (2 Bft)
09.06.2013 07:40 16,7 C 64 % 1014,1 hPa 0,0 l/m 5,6 km/h (1 Bft) SO 135 9,9 C 16,9 C 6,1 km/h (2 Bft)
09.06.2013 07:45 18,2 C 63 % 1014,1 hPa 0,0 l/m 5,5 km/h (1 Bft) S 180 11,0 C 16,4 C 11,1 km/h (2 Bft)
09.06.2013 07:50 20,1 C 59 % 1014,1 hPa 0,0 l/m 5,3 km/h (1 Bft) SW 225 11,8 C 17,5 C 3,7 km/h (1 Bft)
09.06.2013 07:55 21,2 C 56 % 1014,1 hPa 0,0 l/m 5,6 km/h (1 Bft) S 180 12,1 C 19,0 C 5,8 km/h (2 Bft)
09.06.2013 08:00 21,2 C 55 % 1014,2 hPa 0,0 l/m 6,4 km/h (2 Bft) S 180 11,8 C 19,5 C 8,7 km/h (2 Bft)
09.06.2013 08:05 21,1 C 55 % 1014,2 hPa 0,0 l/m 8,0 km/h (2 Bft) S 180 11,7 C 18,8 C 6,1 km/h (2 Bft)
09.06.2013 08:10 21,5 C 55 % 1014,2 hPa 0,0 l/m 7,9 km/h (2 Bft) O-SO 112 12,1 C 19,2 C 16,9 km/h (3 Bft)
09.06.2013 08:15 21,8 C 55 % 1014,2 hPa 0,0 l/m 6,0 km/h (2 Bft) W-SW 247 12,4 C 20,4 C 4,3 km/h (1 Bft)
09.06.2013 08:20 22,7 C 53 % 1014,2 hPa 0,0 l/m 5,6 km/h (1 Bft) S-SW 202 12,6 C 20,7 C 9,0 km/h (2 Bft)
09.06.2013 08:25 22,2 C 53 % 1014,2 hPa 0,0 l/m 5,8 km/h (2 Bft) S 180 12,2 C 21,1 C 11,6 km/h (2 Bft)
09.06.2013 08:30 21,9 C 55 % 1014,2 hPa 0,0 l/m 5,5 km/h (1 Bft) W-SW 247 12,4 C 21,2 C 11,6 km/h (2 Bft)
09.06.2013 08:35 20,5 C 58 % 1014,2 hPa 0,0 l/m 6,0 km/h (2 Bft) S 180 11,9 C 20,7 C 8,0 km/h (2 Bft)
09.06.2013 08:40 19,9 C 58 % 1014,4 hPa 0,0 l/m 5,8 km/h (2 Bft) W-SW 247 11,4 C 20,1 C 6,9 km/h (2 Bft)
09.06.2013 08:45 20,2 C 58 % 1014,4 hPa 0,0 l/m 5,6 km/h (1 Bft) S-SW 202 11,7 C 19,6 C 6,8 km/h (2 Bft)
09.06.2013 08:50 21,1 C 57 % 1014,4 hPa 0,0 l/m 6,0 km/h (2 Bft) W-SW 247 12,2 C 19,8 C 7,2 km/h (2 Bft)
09.06.2013 08:55 22,4 C 56 % 1014,4 hPa 0,0 l/m 6,4 km/h (2 Bft) SO 135 13,2 C 20,3 C 14,5 km/h (3 Bft)
09.06.2013 09:00 20,0 C 58 % 1014,6 hPa 0,0 l/m 6,9 km/h (2 Bft) W-SW 247 11,5 C 20,0 C 17,4 km/h (3 Bft)
09.06.2013 09:05 19,5 C 60 % 1014,6 hPa 0,0 l/m 7,2 km/h (2 Bft) S-SW 202 11,5 C 18,7 C 10,1 km/h (2 Bft)
09.06.2013 09:10 21,8 C 57 % 1014,6 hPa 0,0 l/m 7,1 km/h (2 Bft) W 270 12,9 C 19,0 C 5,6 km/h (1 Bft)
09.06.2013 09:15 21,1 C 57 % 1014,6 hPa 0,0 l/m 7,9 km/h (2 Bft) S 180 12,2 C 19,2 C 6,6 km/h (2 Bft)
09.06.2013 09:20 22,6 C 54 % 1014,6 hPa 0,0 l/m 7,4 km/h (2 Bft) S 180 12,8 C 20,0 C 17,9 km/h (3 Bft)
09.06.2013 09:25 23,4 C 53 % 1014,6 hPa 0,0 l/m 7,1 km/h (2 Bft) S 180 13,3 C 21,1 C 5,8 km/h (2 Bft)
09.06.2013 09:30 23,4 C 50 % 1014,6 hPa 0,0 l/m 8,2 km/h (2 Bft) S 180 12,4 C 21,3 C 11,9 km/h (2 Bft)
09.06.2013 09:35 22,6 C 53 % 1014,6 hPa 0,0 l/m 9,0 km/h (2 Bft) W-SW 247 12,5 C 21,1 C 7,6 km/h (2 Bft)
09.06.2013 09:40 22,3 C 51 % 1014,9 hPa 0,0 l/m 10,8 km/h (2 Bft) SW 225 11,7 C 20,4 C 22,7 km/h (4 Bft)
09.06.2013 09:45 23,5 C 49 % 1014,9 hPa 0,0 l/m 9,7 km/h (2 Bft) SO 135 12,2 C 21,2 C 13,2 km/h (3 Bft)
09.06.2013 09:50 20,1 C 55 % 1014,9 hPa 0,0 l/m 9,2 km/h (2 Bft) SO 135 10,8 C 20,4 C 7,6 km/h (2 Bft)
09.06.2013 09:55 19,9 C 56 % 1014,9 hPa 0,0 l/m 10,8 km/h (2 Bft) S-SW 202 10,9 C 17,7 C 12,7 km/h (3 Bft)
09.06.2013 10:00 21,6 C 51 % 1015,0 hPa 0,0 l/m 10,3 km/h (2 Bft) SW 225 11,0 C 18,3 C 9,2 km/h (2 Bft)
09.06.2013 10:05 22,3 C 51 % 1015,0 hPa 0,0 l/m 8,4 km/h (2 Bft) S 180 11,7 C 20,4 C 5,8 km/h (2 Bft)
09.06.2013 10:10 22,4 C 48 % 1015,0 hPa 0,0 l/m 8,4 km/h (2 Bft) O-SO 112 10,8 C 21,0 C 16,6 km/h (3 Bft)
09.06.2013 10:15 22,2 C 49 % 1015,0 hPa 0,0 l/m 9,8 km/h (2 Bft) S 180 11,0 C 20,5 C 9,2 km/h (2 Bft)
09.06.2013 10:20 21,9 C 49 % 1015,1 hPa 0,0 l/m 10,3 km/h (2 Bft) S 180 10,7 C 20,5 C 15,1 km/h (3 Bft)
09.06.2013 10:25 21,7 C 49 % 1015,1 hPa 0,0 l/m 9,2 km/h (2 Bft) S 180 10,5 C 20,8 C 10,0 km/h (2 Bft)
09.06.2013 10:30 21,9 C 47 % 1015,1 hPa 0,0 l/m 9,5 km/h (2 Bft) SW 225 10,1 C 20,9 C 9,0 km/h (2 Bft)
09.06.2013 10:35 22,5 C 47 % 1015,1 hPa 0,0 l/m 9,3 km/h (2 Bft) S-SW 202 10,6 C 21,2 C 11,4 km/h (2 Bft)
09.06.2013 10:40 22,7 C 46 % 1015,4 hPa 0,0 l/m 8,7 km/h (2 Bft) S 180 10,5 C 21,4 C 8,0 km/h (2 Bft)
09.06.2013 10:45 22,4 C 47 % 1015,4 hPa 0,0 l/m 9,2 km/h (2 Bft) W-SW 247 10,5 C 21,3 C 10,8 km/h (2 Bft)
09.06.2013 10:50 22,8 C 48 % 1015,4 hPa 0,0 l/m 9,2 km/h (2 Bft) S-SW 202 11,2 C 21,4 C 7,9 km/h (2 Bft)
09.06.2013 10:55 22,6 C 47 % 1015,4 hPa 0,0 l/m 9,0 km/h (2 Bft) S 180 10,7 C 21,6 C 10,3 km/h (2 Bft)
09.06.2013 11:00 22,3 C 48 % 1015,6 hPa 0,0 l/m 9,2 km/h (2 Bft) S-SO 157 10,8 C 21,5 C 16,6 km/h (3 Bft)
09.06.2013 11:05 21,8 C 48 % 1015,6 hPa 0,0 l/m 8,5 km/h (2 Bft) S 180 10,3 C 21,3 C 9,3 km/h (2 Bft)
09.06.2013 11:10 21,9 C 48 % 1015,6 hPa 0,0 l/m 7,7 km/h (2 Bft) S-SO 157 10,4 C 21,4 C 5,5 km/h (1 Bft)
09.06.2013 11:15 22,4 C 46 % 1015,6 hPa 0,0 l/m 6,9 km/h (2 Bft) S-SW 202 10,2 C 21,9 C 9,0 km/h (2 Bft)
09.06.2013 11:20 22,8 C 47 % 1015,5 hPa 0,0 l/m 7,2 km/h (2 Bft) S-SO 157 10,9 C 22,2 C 12,4 km/h (3 Bft)
09.06.2013 11:25 22,3 C 48 % 1015,5 hPa 0,0 l/m 7,6 km/h (2 Bft) S 180 10,8 C 22,2 C 10,0 km/h (2 Bft)
09.06.2013 11:30 23,2 C 47 % 1015,5 hPa 0,0 l/m 7,1 km/h (2 Bft) W 270 11,3 C 22,5 C 8,4 km/h (2 Bft)
09.06.2013 11:35 22,8 C 47 % 1015,5 hPa 0,0 l/m 7,1 km/h (2 Bft) S 180 10,9 C 22,8 C 6,1 km/h (2 Bft)
09.06.2013 11:40 23,0 C 46 % 1015,9 hPa 0,0 l/m 6,9 km/h (2 Bft) S 180 10,7 C 22,8 C 9,8 km/h (2 Bft)
09.06.2013 11:45 23,3 C 45 % 1015,9 hPa 0,0 l/m 6,4 km/h (2 Bft) O-NO 67 10,7 C 23,5 C 7,4 km/h (2 Bft)
09.06.2013 11:50 22,9 C 46 % 1015,9 hPa 0,0 l/m 6,8 km/h (2 Bft) W-SW 247 10,7 C 23,5 C 9,0 km/h (2 Bft)
09.06.2013 11:55 21,4 C 49 % 1015,9 hPa 0,0 l/m 6,4 km/h (2 Bft) W-SW 247 10,2 C 22,8 C 12,6 km/h (3 Bft)
09.06.2013 12:00 20,7 C 52 % 1015,7 hPa 0,0 l/m 6,8 km/h (2 Bft) SO 135 10,5 C 21,9 C 12,7 km/h (3 Bft)
09.06.2013 12:05 20,4 C 54 % 1015,7 hPa 0,0 l/m 6,4 km/h (2 Bft) O-SO 112 10,8 C 21,2 C 4,8 km/h (1 Bft)
09.06.2013 12:10 20,4 C 55 % 1015,7 hPa 0,0 l/m 5,3 km/h (1 Bft) W-SW 247 11,1 C 21,0 C 4,2 km/h (1 Bft)
09.06.2013 12:15 20,7 C 53 % 1015,7 hPa 0,0 l/m 4,5 km/h (1 Bft) S-SW 202 10,8 C 21,0 C 12,7 km/h (3 Bft)
09.06.2013 12:20 21,2 C 52 % 1015,4 hPa 0,0 l/m 5,0 km/h (1 Bft) S-SO 157 10,9 C 21,1 C 7,6 km/h (2 Bft)
09.06.2013 12:25 21,5 C 50 % 1015,4 hPa 0,0 l/m 5,8 km/h (2 Bft) S 180 10,6 C 21,9 C 5,5 km/h (1 Bft)
09.06.2013 12:30 20,9 C 53 % 1015,4 hPa 0,0 l/m 6,0 km/h (2 Bft) W-SW 247 11,0 C 21,9 C 7,7 km/h (2 Bft)
09.06.2013 12:35 21,2 C 50 % 1015,4 hPa 0,0 l/m 6,0 km/h (2 Bft) S 180 10,4 C 21,8 C 5,6 km/h (1 Bft)
09.06.2013 12:40 21,2 C 52 % 1015,2 hPa 0,0 l/m 4,8 km/h (1 Bft) S-SW 202 10,9 C 22,2 C 3,9 km/h (1 Bft)
09.06.2013 12:45 21,8 C 49 % 1015,2 hPa 0,0 l/m 3,7 km/h (1 Bft) W 270 10,6 C 22,7 C 5,5 km/h (1 Bft)
09.06.2013 12:50 21,6 C 48 % 1015,2 hPa 0,0 l/m 3,7 km/h (1 Bft) S 180 10,1 C 23,1 C 3,9 km/h (1 Bft)
09.06.2013 12:55 21,9 C 49 % 1015,2 hPa 0,0 l/m 4,0 km/h (1 Bft) S 180 10,7 C 23,6 C 5,5 km/h (1 Bft)
09.06.2013 13:00 21,8 C 49 % 1015,2 hPa 0,0 l/m 4,0 km/h (1 Bft) S-SW 202 10,6 C 23,6 C 5,0 km/h (1 Bft)
09.06.2013 13:05 23,0 C 48 % 1015,2 hPa 0,0 l/m 3,4 km/h (1 Bft) SO 135 11,4 C 24,2 C 7,7 km/h (2 Bft)
09.06.2013 13:10 23,5 C 48 % 1015,2 hPa 0,0 l/m 3,2 km/h (1 Bft) S 180 11,8 C 25,2 C 10,0 km/h (2 Bft)
09.06.2013 13:15 23,1 C 48 % 1015,2 hPa 0,0 l/m 5,6 km/h (1 Bft) S-SO 157 11,5 C 25,2 C 7,9 km/h (2 Bft)
09.06.2013 13:20 24,1 C 47 % 1015,5 hPa 0,0 l/m 6,3 km/h (2 Bft) S 180 12,1 C 25,3 C 4,8 km/h (1 Bft)
09.06.2013 13:25 24,1 C 43 % 1015,5 hPa 0,0 l/m 6,0 km/h (2 Bft) S-SW 202 10,7 C 25,5 C 8,0 km/h (2 Bft)
09.06.2013 13:30 23,4 C 46 % 1015,5 hPa 0,0 l/m 6,1 km/h (2 Bft) S 180 11,1 C 25,6 C 7,6 km/h (2 Bft)
09.06.2013 13:35 22,7 C 49 % 1015,5 hPa 0,0 l/m 6,4 km/h (2 Bft) SO 135 11,4 C 24,4 C 7,4 km/h (2 Bft)
09.06.2013 13:40 22,9 C 48 % 1014,3 hPa 0,0 l/m 6,4 km/h (2 Bft) S-SW 202 11,3 C 23,8 C 12,1 km/h (2 Bft)
09.06.2013 13:45 23,5 C 46 % 1014,3 hPa 0,0 l/m 5,8 km/h (2 Bft) W-SW 247 11,2 C 24,4 C 9,2 km/h (2 Bft)
09.06.2013 13:50 22,6 C 49 % 1014,3 hPa 0,0 l/m 6,3 km/h (2 Bft) S-SW 202 11,3 C 24,2 C 10,1 km/h (2 Bft)
09.06.2013 13:55 23,3 C 48 % 1014,3 hPa 0,0 l/m 6,4 km/h (2 Bft) S-SW 202 11,7 C 23,8 C 4,0 km/h (1 Bft)
09.06.2013 14:00 24,4 C 45 % 1015,2 hPa 0,0 l/m 6,0 km/h (2 Bft) S 180 11,7 C 24,8 C 8,7 km/h (2 Bft)
09.06.2013 14:05 25,0 C 46 % 1015,2 hPa 0,0 l/m 5,5 km/h (1 Bft) S-SW 202 12,6 C 25,6 C 8,0 km/h (2 Bft)
09.06.2013 14:10 24,8 C 42 % 1015,2 hPa 0,0 l/m 5,8 km/h (2 Bft) W-SW 247 11,0 C 26,0 C 10,5 km/h (2 Bft)
09.06.2013 14:15 22,6 C 47 % 1015,2 hPa 0,0 l/m 5,3 km/h (1 Bft) SO 135 10,7 C 25,2 C 3,4 km/h (1 Bft)
09.06.2013 14:20 22,4 C 49 % 1014,9 hPa 0,0 l/m 5,0 km/h (1 Bft) S-SW 202 11,2 C 24,5 C 6,3 km/h (2 Bft)
09.06.2013 14:25 22,4 C 51 % 1014,9 hPa 0,0 l/m 5,8 km/h (2 Bft) S-SO 157 11,8 C 23,8 C 7,2 km/h (2 Bft)
09.06.2013 14:30 22,0 C 51 % 1014,9 hPa 0,0 l/m 6,9 km/h (2 Bft) S 180 11,4 C 23,1 C 6,9 km/h (2 Bft)
09.06.2013 14:35 20,6 C 54 % 1014,9 hPa 0,0 l/m 6,8 km/h (2 Bft) S 180 11,0 C 21,9 C 5,0 km/h (1 Bft)
09.06.2013 14:40 19,8 C 56 % 1014,8 hPa 0,0 l/m 5,8 km/h (2 Bft) S 180 10,8 C 21,2 C 7,4 km/h (2 Bft)
09.06.2013 14:45 19,3 C 58 % 1014,8 hPa 0,0 l/m 5,5 km/h (1 Bft) W-SW 247 10,8 C 20,3 C 5,3 km/h (1 Bft)
09.06.2013 14:50 18,9 C 58 % 1014,8 hPa 0,0 l/m 5,3 km/h (1 Bft) SW 225 10,5 C 19,7 C 8,2 km/h (2 Bft)
09.06.2013 14:55 18,5 C 60 % 1014,8 hPa 0,0 l/m 5,1 km/h (1 Bft) S 180 10,6 C 19,1 C 6,6 km/h (2 Bft)
09.06.2013 15:00 18,2 C 62 % 1014,1 hPa 0,0 l/m 5,6 km/h (1 Bft) S 180 10,8 C 18,6 C 9,8 km/h (2 Bft)
09.06.2013 15:05 17,5 C 66 % 1014,1 hPa 0,0 l/m 6,1 km/h (2 Bft) O-SO 112 11,1 C 17,6 C 6,6 km/h (2 Bft)
09.06.2013 15:10 16,5 C 73 % 1014,1 hPa 0,0 l/m 5,6 km/h (1 Bft) O-SO 112 11,6 C 16,6 C 9,5 km/h (2 Bft)
09.06.2013 15:15 14,6 C 82 % 1014,1 hPa 3,4 l/m 5,5 km/h (1 Bft) S 180 11,6 C 15,1 C 8,4 km/h (2 Bft)
09.06.2013 15:20 13,6 C 83 % 1014,4 hPa 5,5 l/m 5,1 km/h (1 Bft) S-SO 157 10,8 C 14,2 C 7,4 km/h (2 Bft)
09.06.2013 15:25 13,6 C 86 % 1014,4 hPa 2,7 l/m 3,1 km/h (1 Bft) W-NW 292 11,3 C 13,7 C 4,2 km/h (1 Bft)
09.06.2013 15:30 13,8 C 87 % 1014,4 hPa 0,0 l/m 3,5 km/h (1 Bft) S-SO 157 11,7 C 13,7 C 3,4 km/h (1 Bft)
09.06.2013 15:35 13,8 C 88 % 1014,4 hPa 0,0 l/m 3,2 km/h (1 Bft) S-SO 157 11,8 C 13,8 C 5,3 km/h (1 Bft)
09.06.2013 15:40 13,9 C 89 % 1014,2 hPa 0,0 l/m 3,2 km/h (1 Bft) S 180 12,1 C 13,9 C 6,9 km/h (2 Bft)
09.06.2013 15:45 13,8 C 90 % 1014,2 hPa 0,0 l/m 3,2 km/h (1 Bft) S 180 12,2 C 13,9 C 4,2 km/h (1 Bft)
09.06.2013 15:50 13,9 C 90 % 1014,2 hPa 0,0 l/m 3,4 km/h (1 Bft) O 90 12,3 C 13,9 C 3,1 km/h (1 Bft)
09.06.2013 15:55 13,9 C 90 % 1014,2 hPa 0,0 l/m 3,2 km/h (1 Bft) SO 135 12,3 C 14,1 C 6,6 km/h (2 Bft)
09.06.2013 16:00 14,0 C 91 % 1014,1 hPa 0,0 l/m 2,7 km/h (1 Bft) NO 45 12,6 C 14,2 C 3,4 km/h (1 Bft)
09.06.2013 16:05 14,1 C 91 % 1014,1 hPa 0,0 l/m 3,1 km/h (1 Bft) O-SO 112 12,7 C 14,5 C 4,3 km/h (1 Bft)
09.06.2013 16:10 14,2 C 91 % 1014,1 hPa 0,0 l/m 2,6 km/h (1 Bft) O-NO 67 12,8 C 14,7 C 2,3 km/h (1 Bft)
09.06.2013 16:15 14,3 C 92 % 1014,1 hPa 0,0 l/m 1,0 km/h (0 Bft) O 90 13,0 C 15,2 C 0,0 km/h (0 Bft)
09.06.2013 16:20 14,5 C 92 % 1014,2 hPa 0,0 l/m 0,3 km/h (0 Bft) NO 45 13,2 C 15,5 C 0,0 km/h (0 Bft)
09.06.2013 16:25 14,5 C 92 % 1014,2 hPa 0,0 l/m 0,2 km/h (0 Bft) NO 45 13,2 C 15,6 C 0,0 km/h (0 Bft)
09.06.2013 16:30 14,7 C 92 % 1014,2 hPa 0,0 l/m 0,0 km/h (0 Bft) S 180 13,4 C 15,8 C 0,0 km/h (0 Bft)
09.06.2013 16:35 14,5 C 92 % 1014,2 hPa 0,0 l/m 0,2 km/h (0 Bft) N-NO 22 13,2 C 15,8 C 2,1 km/h (1 Bft)
09.06.2013 16:40 14,6 C 92 % 1013,4 hPa 0,0 l/m 0,5 km/h (0 Bft) N 360 13,3 C 15,7 C 1,6 km/h (1 Bft)
09.06.2013 16:45 14,7 C 92 % 1013,4 hPa 0,0 l/m 2,4 km/h (1 Bft) O 90 13,4 C 15,4 C 1,8 km/h (1 Bft)
09.06.2013 16:50 15,3 C 92 % 1013,4 hPa 0,0 l/m 3,2 km/h (1 Bft) S-SW 202 14,0 C 15,3 C 2,9 km/h (1 Bft)
09.06.2013 16:55 15,7 C 92 % 1013,4 hPa 0,0 l/m 2,7 km/h (1 Bft) NO 45 14,4 C 15,6 C 0,0 km/h (0 Bft)
09.06.2013 17:00 16,1 C 91 % 1013,4 hPa 0,0 l/m 1,9 km/h (1 Bft) S 180 14,6 C 16,3 C 0,0 km/h (0 Bft)
09.06.2013 17:05 16,2 C 91 % 1013,4 hPa 0,0 l/m 1,9 km/h (1 Bft) SO 135 14,7 C 16,9 C 0,0 km/h (0 Bft)
09.06.2013 17:10 16,4 C 91 % 1013,4 hPa 0,0 l/m 1,1 km/h (1 Bft) W-NW 292 14,9 C 17,6 C 0,0 km/h (0 Bft)
09.06.2013 17:15 16,6 C 91 % 1013,4 hPa 0,0 l/m 0,0 km/h (0 Bft) O-SO 112 15,1 C 18,5 C 0,0 km/h (0 Bft)
09.06.2013 17:20 16,6 C 90 % 1013,6 hPa 0,0 l/m 0,0 km/h (0 Bft) NW 315 15,0 C 19,0 C 0,0 km/h (0 Bft)
09.06.2013 17:25 16,4 C 90 % 1013,6 hPa 0,0 l/m 0,3 km/h (0 Bft) N 360 14,8 C 18,9 C 0,0 km/h (0 Bft)
09.06.2013 17:30 16,1 C 90 % 1013,6 hPa 0,0 l/m 0,3 km/h (0 Bft) NO 45 14,5 C 18,9 C 0,0 km/h (0 Bft)
09.06.2013 17:35 16,2 C 90 % 1013,6 hPa 0,0 l/m 0,3 km/h (0 Bft) SO 135 14,6 C 18,7 C 4,8 km/h (1 Bft)
09.06.2013 17:40 16,1 C 90 % 1013,1 hPa 0,0 l/m 0,6 km/h (0 Bft) NO 45 14,5 C 18,3 C 0,0 km/h (0 Bft)
09.06.2013 17:45 15,9 C 92 % 1013,1 hPa 0,0 l/m 0,8 km/h (0 Bft) S 180 14,6 C 17,9 C 0,0 km/h (0 Bft)
09.06.2013 17:50 15,8 C 91 % 1013,1 hPa 0,0 l/m 0,0 km/h (0 Bft) NO 45 14,3 C 17,7 C 0,0 km/h (0 Bft)
09.06.2013 17:55 15,7 C 92 % 1013,1 hPa 0,0 l/m 0,0 km/h (0 Bft) O 90 14,4 C 17,2 C 0,0 km/h (0 Bft)
09.06.2013 18:00 15,6 C 92 % 1012,8 hPa 0,0 l/m 0,0 km/h (0 Bft) NO 45 14,3 C 17,1 C 0,0 km/h (0 Bft)
09.06.2013 18:05 15,4 C 92 % 1012,8 hPa 0,0 l/m 0,3 km/h (0 Bft) N-NO 22 14,1 C 16,8 C 0,0 km/h (0 Bft)
09.06.2013 18:10 15,4 C 92 % 1012,8 hPa 0,0 l/m 0,3 km/h (0 Bft) NO 45 14,1 C 16,7 C 0,0 km/h (0 Bft)
09.06.2013 18:15 15,3 C 92 % 1012,8 hPa 0,0 l/m 0,3 km/h (0 Bft) O 90 14,0 C 16,5 C 2,3 km/h (1 Bft)
09.06.2013 18:20 15,2 C 92 % 1012,9 hPa 0,0 l/m 0,3 km/h (0 Bft) O-NO 67 13,9 C 16,4 C 0,0 km/h (0 Bft)
09.06.2013 18:25 14,9 C 92 % 1012,9 hPa 0,0 l/m 1,3 km/h (1 Bft) O 90 13,6 C 16,2 C 2,6 km/h (1 Bft)
09.06.2013 18:30 14,9 C 92 % 1012,9 hPa 0,0 l/m 1,4 km/h (1 Bft) O-NO 67 13,6 C 16,0 C 0,0 km/h (0 Bft)
09.06.2013 18:35 14,9 C 92 % 1012,9 hPa 0,0 l/m 0,8 km/h (0 Bft) NO 45 13,6 C 15,8 C 0,0 km/h (0 Bft)
09.06.2013 18:40 14,8 C 92 % 1012,6 hPa 0,0 l/m 0,3 km/h (0 Bft) O 90 13,5 C 15,8 C 1,6 km/h (1 Bft)
09.06.2013 18:45 14,8 C 92 % 1012,6 hPa 0,0 l/m 0,3 km/h (0 Bft) O-NO 67 13,5 C 15,6 C 0,0 km/h (0 Bft)
09.06.2013 18:50 14,8 C 92 % 1012,6 hPa 0,0 l/m 0,3 km/h (0 Bft) NO 45 13,5 C 15,5 C 0,0 km/h (0 Bft)
09.06.2013 18:55 14,9 C 92 % 1012,6 hPa 0,0 l/m 0,0 km/h (0 Bft) NW 315 13,6 C 15,6 C 0,0 km/h (0 Bft)
09.06.2013 19:00 14,8 C 92 % 1013,1 hPa 0,0 l/m 0,2 km/h (0 Bft) NO 45 13,5 C 15,6 C 0,0 km/h (0 Bft)
09.06.2013 19:05 14,8 C 93 % 1013,1 hPa 0,0 l/m 0,2 km/h (0 Bft) NO 45 13,7 C 15,6 C 2,6 km/h (1 Bft)
09.06.2013 19:10 14,8 C 93 % 1013,1 hPa 0,0 l/m 0,3 km/h (0 Bft) O-NO 67 13,7 C 15,6 C 0,0 km/h (0 Bft)
09.06.2013 19:15 14,8 C 93 % 1013,1 hPa 0,0 l/m 0,2 km/h (0 Bft) NO 45 13,7 C 15,7 C 0,0 km/h (0 Bft)
09.06.2013 19:20 15,0 C 93 % 1012,4 hPa 0,0 l/m 0,0 km/h (0 Bft) NO 45 13,9 C 15,8 C 0,0 km/h (0 Bft)
09.06.2013 19:25 15,2 C 93 % 1012,4 hPa 0,0 l/m 0,0 km/h (0 Bft) O-NO 67 14,1 C 16,5 C 0,0 km/h (0 Bft)
09.06.2013 19:30 15,2 C 93 % 1012,4 hPa 0,0 l/m 0,0 km/h (0 Bft) O-NO 67 14,1 C 16,8 C 0,0 km/h (0 Bft)
09.06.2013 19:35 15,1 C 93 % 1012,4 hPa 0,0 l/m 0,5 km/h (0 Bft) N-NO 22 14,0 C 16,9 C 2,1 km/h (1 Bft)
09.06.2013 19:40 15,0 C 93 % 1012,3 hPa 0,0 l/m 1,0 km/h (0 Bft) O 90 13,9 C 16,6 C 0,0 km/h (0 Bft)
09.06.2013 19:45 14,8 C 93 % 1012,3 hPa 0,0 l/m 0,6 km/h (0 Bft) O 90 13,7 C 16,2 C 0,0 km/h (0 Bft)
09.06.2013 19:50 14,6 C 93 % 1012,3 hPa 0,0 l/m 0,3 km/h (0 Bft) O 90 13,5 C 16,0 C 2,7 km/h (1 Bft)
09.06.2013 19:55 14,4 C 93 % 1012,3 hPa 0,0 l/m 0,6 km/h (0 Bft) O 90 13,3 C 15,5 C 0,0 km/h (0 Bft)
09.06.2013 20:00 14,4 C 93 % 1012,6 hPa 0,0 l/m 0,5 km/h (0 Bft) N 360 13,3 C 15,3 C 0,0 km/h (0 Bft)
09.06.2013 20:05 14,3 C 93 % 1012,6 hPa 0,0 l/m 0,2 km/h (0 Bft) O 90 13,2 C 15,0 C 0,0 km/h (0 Bft)
09.06.2013 20:10 14,3 C 93 % 1012,6 hPa 0,0 l/m 0,0 km/h (0 Bft) O 90 13,2 C 15,0 C 0,0 km/h (0 Bft)
09.06.2013 20:15 14,2 C 93 % 1012,6 hPa 0,0 l/m 0,0 km/h (0 Bft) O 90 13,1 C 14,9 C 0,0 km/h (0 Bft)
09.06.2013 20:20 14,1 C 93 % 1012,2 hPa 0,0 l/m 0,6 km/h (0 Bft) O 90 13,0 C 14,6 C 1,9 km/h (1 Bft)
09.06.2013 20:25 13,9 C 93 % 1012,2 hPa 0,0 l/m 1,1 km/h (1 Bft) O-NO 67 12,8 C 14,4 C 1,9 km/h (1 Bft)
09.06.2013 20:30 13,8 C 93 % 1012,2 hPa 0,0 l/m 0,6 km/h (0 Bft) O 90 12,7 C 14,2 C 0,0 km/h (0 Bft)
09.06.2013 20:35 13,7 C 93 % 1012,2 hPa 0,0 l/m 0,2 km/h (0 Bft) O-SO 112 12,6 C 14,0 C 0,0 km/h (0 Bft)
09.06.2013 20:40 13,7 C 93 % 1011,4 hPa 0,0 l/m 0,2 km/h (0 Bft) S 180 12,6 C 13,9 C 0,0 km/h (0 Bft)
09.06.2013 20:45 13,6 C 93 % 1011,4 hPa 0,0 l/m 0,2 km/h (0 Bft) SO 135 12,5 C 13,8 C 0,0 km/h (0 Bft)
09.06.2013 20:50 13,5 C 93 % 1011,4 hPa 0,0 l/m 0,0 km/h (0 Bft) O-SO 112 12,4 C 13,7 C 0,0 km/h (0 Bft)
09.06.2013 20:55 13,3 C 93 % 1011,4 hPa 0,0 l/m 0,0 km/h (0 Bft) O-SO 112 12,2 C 13,5 C 0,0 km/h (0 Bft)
09.06.2013 21:00 13,2 C 93 % 1011,4 hPa 0,0 l/m 0,0 km/h (0 Bft) O-SO 112 12,1 C 13,4 C 0,0 km/h (0 Bft)
09.06.2013 21:05 12,9 C 94 % 1011,4 hPa 0,0 l/m 0,0 km/h (0 Bft) O-SO 112 12,0 C 13,1 C 0,0 km/h (0 Bft)
09.06.2013 21:10 12,8 C 94 % 1011,4 hPa 0,0 l/m 0,0 km/h (0 Bft) O 90 11,9 C 12,9 C 0,0 km/h (0 Bft)
09.06.2013 21:15 12,6 C 94 % 1011,4 hPa 0,0 l/m 0,0 km/h (0 Bft) SO 135 11,7 C 12,8 C 0,0 km/h (0 Bft)
09.06.2013 21:20 12,5 C 94 % 1011,3 hPa 0,0 l/m 0,2 km/h (0 Bft) O-SO 112 11,6 C 12,7 C 0,0 km/h (0 Bft)
09.06.2013 21:25 12,3 C 94 % 1011,3 hPa 0,0 l/m 0,2 km/h (0 Bft) S 180 11,4 C 12,5 C 0,0 km/h (0 Bft)
09.06.2013 21:30 12,3 C 94 % 1011,3 hPa 0,0 l/m 0,2 km/h (0 Bft) S-SO 157 11,4 C 12,5 C 0,0 km/h (0 Bft)
09.06.2013 21:35 12,5 C 94 % 1011,3 hPa 0,0 l/m 0,2 km/h (0 Bft) SW 225 11,6 C 12,5 C 0,0 km/h (0 Bft)
09.06.2013 21:40 12,5 C 94 % 1011,4 hPa 0,0 l/m 0,2 km/h (0 Bft) SO 135 11,6 C 12,6 C 0,0 km/h (0 Bft)
09.06.2013 21:45 12,6 C 94 % 1011,4 hPa 0,0 l/m 0,3 km/h (0 Bft) S-SO 157 11,7 C 12,7 C 0,0 km/h (0 Bft)
09.06.2013 21:50 12,7 C 95 % 1011,4 hPa 0,0 l/m 0,3 km/h (0 Bft) S 180 11,9 C 12,8 C 0,0 km/h (0 Bft)
09.06.2013 21:55 12,7 C 95 % 1011,4 hPa 0,0 l/m 0,3 km/h (0 Bft) S-SO 157 11,9 C 12,9 C 0,0 km/h (0 Bft)
09.06.2013 22:00 12,6 C 95 % 1011,5 hPa 0,0 l/m 0,3 km/h (0 Bft) O-SO 112 11,8 C 12,9 C 2,1 km/h (1 Bft)
09.06.2013 22:05 12,5 C 95 % 1011,5 hPa 0,0 l/m 0,3 km/h (0 Bft) NW 315 11,7 C 12,9 C 2,7 km/h (1 Bft)
09.06.2013 22:10 12,5 C 95 % 1011,5 hPa 0,0 l/m 0,6 km/h (0 Bft) O 90 11,7 C 12,8 C 2,4 km/h (1 Bft)
09.06.2013 22:15 12,5 C 95 % 1011,5 hPa 0,0 l/m 0,6 km/h (0 Bft) W-NW 292 11,7 C 12,6 C 1,6 km/h (1 Bft)
09.06.2013 22:20 12,5 C 95 % 1011,6 hPa 0,0 l/m 0,6 km/h (0 Bft) O-SO 112 11,7 C 12,6 C 2,1 km/h (1 Bft)
09.06.2013 22:25 12,5 C 95 % 1011,6 hPa 0,0 l/m 1,1 km/h (1 Bft) O-SO 112 11,7 C 12,6 C 2,3 km/h (1 Bft)
09.06.2013 22:30 12,6 C 95 % 1011,6 hPa 0,0 l/m 1,3 km/h (1 Bft) O-SO 112 11,8 C 12,6 C 0,0 km/h (0 Bft)
09.06.2013 22:35 12,6 C 95 % 1011,6 hPa 0,0 l/m 1,4 km/h (1 Bft) S-SO 157 11,8 C 12,6 C 0,0 km/h (0 Bft)
09.06.2013 22:40 12,6 C 95 % 1011,6 hPa 0,0 l/m 1,1 km/h (1 Bft) O 90 11,8 C 12,6 C 0,0 km/h (0 Bft)
09.06.2013 22:45 12,5 C 95 % 1011,6 hPa 0,0 l/m 1,1 km/h (1 Bft) NO 45 11,7 C 12,5 C 3,1 km/h (1 Bft)
09.06.2013 22:50 12,5 C 95 % 1011,6 hPa 0,0 l/m 1,8 km/h (1 Bft) NO 45 11,7 C 12,5 C 2,4 km/h (1 Bft)
09.06.2013 22:55 12,4 C 95 % 1011,6 hPa 0,0 l/m 1,6 km/h (1 Bft) NO 45 11,6 C 12,4 C 0,0 km/h (0 Bft)
09.06.2013 23:00 12,4 C 95 % 1011,8 hPa 0,0 l/m 0,6 km/h (0 Bft) O-NO 67 11,6 C 12,4 C 2,1 km/h (1 Bft)
09.06.2013 23:05 12,5 C 95 % 1011,8 hPa 0,0 l/m 0,8 km/h (0 Bft) N-NO 22 11,7 C 12,4 C 1,9 km/h (1 Bft)
09.06.2013 23:10 12,4 C 95 % 1011,8 hPa 0,0 l/m 0,8 km/h (0 Bft) N 360 11,6 C 12,4 C 0,0 km/h (0 Bft)
09.06.2013 23:15 12,3 C 95 % 1011,8 hPa 0,0 l/m 1,1 km/h (1 Bft) O-NO 67 11,5 C 12,4 C 3,7 km/h (1 Bft)
09.06.2013 23:20 12,3 C 95 % 1011,2 hPa 0,0 l/m 2,4 km/h (1 Bft) O-NO 67 11,5 C 12,3 C 4,0 km/h (1 Bft)
09.06.2013 23:25 12,2 C 95 % 1011,2 hPa 0,0 l/m 3,5 km/h (1 Bft) O 90 11,4 C 12,2 C 3,4 km/h (1 Bft)
09.06.2013 23:30 12,1 C 95 % 1011,2 hPa 0,0 l/m 3,5 km/h (1 Bft) O 90 11,3 C 12,2 C 4,2 km/h (1 Bft)
09.06.2013 23:35 12,0 C 95 % 1011,2 hPa 0,0 l/m 2,7 km/h (1 Bft) O-SO 112 11,2 C 12,0 C 0,0 km/h (0 Bft)
09.06.2013 23:40 11,8 C 95 % 1011,8 hPa 0,0 l/m 1,9 km/h (1 Bft) O 90 11,0 C 11,9 C 1,6 km/h (1 Bft)
09.06.2013 23:45 11,9 C 95 % 1011,8 hPa 0,0 l/m 1,6 km/h (1 Bft) O-NO 67 11,1 C 11,9 C 3,2 km/h (1 Bft)
09.06.2013 23:50 11,9 C 95 % 1011,8 hPa 0,0 l/m 1,6 km/h (1 Bft) O 90 11,1 C 11,9 C 0,0 km/h (0 Bft)
09.06.2013 23:55 11,9 C 95 % 1011,8 hPa 0,0 l/m 0,8 km/h (0 Bft) NO 45 11,1 C 11,9 C 0,0 km/h (0 Bft)
_ Min-Zeit 05:30 14:10 23:35 - 21:15 - - 05:30 05:35 23:55
Minimum _ 11,3 C 42 % 1011,2 hPa - 0,0 km/h (0 Bft) - - 8,5 C 11,0 C 0,0 km/h (0 Bft)
_ Max-Zeit 14:05 23:55 11:55 15:20 09:55 - - 17:15 14:10 09:40
Maximum _ 25,0 C 95 % 1015,9 hPa 5,5 l/m 10,8 km/h
S-SW (2 Bft)
- - 15,1 C 26,0 C 22,7 km/h
SW (4 Bft)
Durchschnitt _ 16,4 C 75 % 1013,6 hPa #11,7 l/m 2,8 km/h (1 Bft) S - 11,4 C 16,6 C 3,7 km/h (1 Bft)